FW7382 Weather Reports


time (UTC)temp
C
wind
direction
speed
KPH
gust
KPH
rain 1hr
cm
rain 24hr
cm
rain mn
cm
humidity
%
barometer
mb
20260506213015 8 0.0 0.0 0.05 0.79 0.79 90 1011.0
20260506212100 8 0.0 0.0 0.05 0.79 0.79 90 1010.9
20260506211017 9 0.0 0.0 0.05 0.79 0.79 90 1010.8
20260506210040 9 0.0 0.0 0.05 0.79 0.79 90 1010.9
20260506205020 9 0.0 0.0 0.08 0.79 0.79 90 1010.8
20260506204017 9 0.0 0.0 0.08 0.76 0.76 91 1011.0
20260506203057 9 0.0 0.0 0.08 0.74 0.74 91 1010.9
20260506202057 9 0.0 0.0 0.08 0.74 0.74 91 1010.8
20260506201017 9 0.0 0.0 0.10 0.74 0.74 91 1010.7
20260506200017 9 0.0 0.0 0.10 0.71 0.71 91 1010.7
20260506195017 9 0.0 0.0 0.10 0.71 0.71 90 1010.6
20260506194121 9 0.0 0.0 0.10 0.69 0.69 90 1010.5
20260506193100 9 0.0 0.0 0.10 0.66 0.66 90 1010.2
20260506192200 9 0.0 0.0 0.15 0.66 0.66 90 1010.1
20260506191117 9 0.0 0.0 0.15 0.64 0.64 90 1010.0
20260506190057 9 0.0 0.0 0.15 0.61 0.61 90 1010.0
20260506185057 9 0.0 0.0 0.15 0.61 0.61 90 1009.9
20260506184057 9 0.0 0.0 0.15 0.58 0.58 90 1009.8
20260506183017 9 0.0 0.0 0.15 0.56 0.56 90 1009.7
20260506182037 10 0.0 0.0 0.15 0.51 0.51 91 1009.5
20260506181017 10 0.0 0.0 0.15 0.51 0.51 91 1009.4
20260506180017 10 0.0 0.0 0.15 0.48 0.46 91 1009.3
20260506175017 10 0.0 0.0 0.15 0.46 0.43 90 1009.2
20260506174017 10 0.0 0.0 0.15 0.43 0.43 90 1009.1
20260506173057 10 0.0 0.0 0.15 0.43 0.41 90 1008.9
20260506172017 10 0.0 0.0 0.15 0.41 0.38 90 1008.8
20260506171017 10 0.0 0.0 0.13 0.36 0.33 90 1008.7
20260506170057 10 0.0 0.0 0.13 0.33 0.33 90 1008.6
20260506165037 10 0.0 0.0 0.13 0.33 0.30 90 1008.6
20260506164017 10 0.0 0.0 0.13 0.30 0.28 90 1008.6
20260506163100 10 0.0 0.0 0.15 0.28 0.25 90 1008.6
20260506162017 10 0.0 0.0 0.13 0.23 0.23 89 1008.6
20260506161037 10 0.0 0.0 0.13 0.23 0.23 90 1008.6
20260506160116 10 0.0 0.0 0.10 0.23 0.20 89 1008.6
20260506155016 10 0.0 0.0 0.08 0.20 0.18 89 1008.6
20260506154057 10 0.0 0.0 0.05 0.18 0.15 88 1008.5
20260506153017 10 0.0 0.0 0.03 0.15 0.13 86 1008.4
20260506152117 10 0.0 0.0 0.00 0.13 0.10 85 1008.2
20260506151017 11 0.0 0.0 0.00 0.13 0.10 86 1008.3
20260506150016 11 0.0 0.0 0.03 0.13 0.10 87 1008.2
20260506145120 11 0.0 0.0 0.03 0.13 0.10 87 1008.2
20260506144200 11 0.0 0.0 0.03 0.15 0.10 87 1008.1
20260506143120 11 0.0 0.0 0.03 0.18 0.10 86 1008.1
20260506142057 11 0.0 0.0 0.05 0.20 0.10 86 1008.1
20260506141137 10 0.0 0.0 0.05 0.23 0.10 86 1008.1
20260506140036 10 0.0 0.0 0.03 0.20 0.08 87 1008.0
20260506135016 10 0.0 0.0 0.05 0.20 0.08 87 1008.1
20260506134017 11 0.0 0.0 0.05 0.20 0.08 88 1008.0
20260506133037 11 0.0 0.0 0.05 0.20 0.08 86 1008.0
20260506132036 11 0.0 0.0 0.05 0.18 0.05 88 1008.0
20260506131036 11 0.0 0.0 0.05 0.18 0.05 89 1008.0
20260506130016 11 0.0 0.0 0.05 0.18 0.05 89 1007.8
20260506125016 11 0.0 0.0 0.00 0.15 0.03 89 1007.6
20260506124100 11 0.0 0.0 0.00 0.15 0.03 89 1007.7
20260506123016 12 0.0 0.0 0.03 0.15 0.03 88 1007.4
20260506122016 12 0.0 0.0 0.03 0.15 0.03 86 1007.5
20260506121036 12 0.0 0.0 0.03 0.15 0.03 86 1007.3
20260506120056 13 0.0 0.0 0.03 0.15 0.03 85 1007.2
20260506115016 13 0.0 0.0 0.03 0.15 0.03 85 1007.3
20260506114016 13 0.0 0.0 0.03 0.15 0.03 83 1007.0
20260506113036 13 0.0 0.0 0.00 0.15 0.00 82 1007.0
20260506112016 13 0.0 0.0 0.00 0.15 0.00 80 1006.9
20260506111058 13 0.0 0.0 0.00 0.15 0.00 80 1006.9
20260506110036 13 0.0 0.0 0.00 0.15 0.00 80 1006.9
20260506105016 13 0.0 0.0 0.00 0.15 0.00 80 1006.9
20260506104016 13 0.0 0.0 0.00 0.15 0.00 79 1006.8
20260506103036 14 0.0 0.0 0.00 0.15 0.00 78 1006.8
20260506102017 14 0.0 0.0 0.00 0.15 0.00 77 1006.8
20260506101059 14 0.0 0.0 0.00 0.15 0.00 76 1006.8
20260506100139 14 0.0 0.0 0.00 0.15 0.00 76 1006.8
20260506095120 13 0.0 0.0 0.00 0.15 0.00 77 1006.6
20260506094016 13 0.0 0.0 0.00 0.15 0.00 77 1006.7
20260506093056 13 0.0 0.0 0.00 0.15 0.00 77 1006.7
20260506092016 13 0.0 0.0 0.00 0.15 0.00 77 1006.7
20260506091036 13 0.0 0.0 0.00 0.15 0.00 76 1006.8
20260506090016 13 0.0 0.0 0.00 0.15 0.00 77 1006.6
20260506085036 13 0.0 0.0 0.00 0.15 0.00 77 1006.6
20260506084016 13 0.0 0.0 0.00 0.15 0.00 78 1006.5
20260506083059 13 0.0 0.0 0.00 0.15 0.00 77 1006.4
20260506082120 13 0.0 0.0 0.00 0.15 0.00 77 1006.4
20260506081016 13 0.0 0.0 0.00 0.15 0.00 78 1006.3
20260506073016 13 0.0 0.0 0.00 0.15 0.00 80 1006.4
20260506071016 12 0.0 0.0 0.00 0.15 0.00 81 1006.3
20260506062016 12 0.0 0.0 0.00 0.15 0.00 83 1006.5
20260506061016 12 0.0 0.0 0.00 0.15 0.00 82 1006.5
20260506051036 11 0.0 0.0 0.00 0.15 0.00 86 1006.5
20260506050116 11 0.0 0.0 0.00 0.15 0.00 85 1006.6
20260506045016 11 0.0 0.0 0.00 0.15 0.00 85 1006.7
20260506044015 11 0.0 0.0 0.00 0.15 0.00 84 1006.8
20260506043056 11 0.0 0.0 0.00 0.15 0.00 84 1006.8
20260506042036 11 0.0 0.0 0.00 0.15 0.00 83 1006.8
20260506041036 11 0.0 0.0 0.00 0.15 0.00 82 1006.9
20260506040015 12 0.0 0.0 0.00 0.15 0.00 82 1007.0
20260506035016 12 0.0 0.0 0.00 0.15 0.00 81 1007.2
20260506034036 12 0.0 0.0 0.00 0.15 0.00 80 1007.0
20260506033059 12 0.0 0.0 0.00 0.15 0.00 80 1007.1
20260506032036 12 0.0 0.0 0.00 0.15 0.00 79 1007.1
20260506031119 12 0.0 0.0 0.00 0.15 0.00 79 1007.0
20260506030035 12 0.0 0.0 0.00 0.15 0.00 79 1007.2
20260506025015 12 0.0 0.0 0.00 0.15 0.00 78 1007.4
20260506024138 12 0.0 0.0 0.00 0.15 0.00 78 1007.6
20260506023015 12 0.0 0.0 0.00 0.15 0.00 77 1007.8
20260506022015 12 0.0 0.0 0.00 0.15 0.00 76 1008.0
20260506021015 13 0.0 0.0 0.00 0.15 0.00 77 1007.9
20260506020015 13 0.0 0.0 0.00 0.15 0.00 76 1008.2
20260506015017 13 0.0 0.0 0.00 0.15 0.00 75 1008.3
20260506014015 13 0.0 0.0 0.00 0.15 0.00 74 1008.4
20260506013035 12 0.0 0.0 0.00 0.15 0.00 75 1008.3
20260506012035 12 0.0 0.0 0.00 0.15 0.00 77 1008.3
20260506011036 12 0.0 0.0 0.00 0.15 0.00 76 1008.3
20260506010035 12 0.0 0.0 0.00 0.15 0.00 76 1008.2
20260506005015 12 0.0 0.0 0.00 0.15 0.00 79 1008.2
20260506004159 12 0.0 0.0 0.00 0.15 0.00 80 1008.1
20260506003015 12 0.0 0.0 0.00 0.15 0.00 77 1008.1
20260506002015 12 0.0 0.0 0.00 0.15 0.00 77 1008.5
20260506001015 12 0.0 0.0 0.00 0.15 0.00 76 1008.4
20260506000015 13 0.0 0.0 0.00 0.15 0.15 76 1008.7
20260505235057 12 0.0 0.0 0.00 0.15 0.15 78 1008.8
20260505234016 12 0.0 0.0 0.00 0.15 0.15 83 1008.7
20260505233016 12 0.0 0.0 0.00 0.15 0.15 82 1008.8
20260505232036 12 0.0 0.0 0.00 0.15 0.15 81 1008.8
20260505231016 12 0.0 0.0 0.00 0.15 0.15 80 1008.9
20260505230016 12 0.0 0.0 0.00 0.15 0.15 83 1008.9
20260505225016 12 0.0 0.0 0.00 0.15 0.15 82 1009.0
20260505224056 12 0.0 0.0 0.00 0.15 0.15 82 1009.1
20260505223036 12 0.0 0.0 0.00 0.15 0.15 83 1009.1
20260505222016 12 0.0 0.0 0.00 0.15 0.15 83 1009.1
20260505221016 12 0.0 0.0 0.00 0.15 0.15 83 1009.1
20260505220119 12 0.0 0.0 0.00 0.15 0.15 82 1009.0
20260505215016 12 0.0 0.0 0.00 0.15 0.15 82 1009.1
20260505214016 12 0.0 0.0 0.00 0.15 0.15 84 1009.1
20260505213056 12 0.0 0.0 0.00 0.15 0.15 84 1009.1